Regional Weather Roundup
Issued by NWS

Home | Current Version | Previous Version | Graphics & Text | Print | Product List | Glossary On
Versions: 1 2 3 4 5 6 7 8 9 10 11 12 13 14 15 16 17 18 19 20 21 22 23 24 25 26 27 28 29 30 31 32 33 34 35 36 37 38 39 40 41 42 43 44 45 46 47 48 49 50
000
ASUS43 KOAX 280702
RWRNE

WEATHER ROUNDUP FOR NEBRASKA
NATIONAL WEATHER SERVICE OMAHA NE
200 AM CDT TUE APR 28 2015

NOTES: SATELLITE DATA IS BEING USED TO AUGMENT CLOUD COVER ABOVE
       12000 FEET.
       "FAIR" INDICATES FEW OR NO CLOUDS BELOW 12,000 FEET WITH NO
       SIGNIFICANT WEATHER AND/OR OBSTRUCTIONS TO VISIBILITY.

  * THESE STATIONS DO NOT REPORT WEATHER SUCH AS RAIN...SNOW OR FOG.

NEZ001>004-019>022-054>056-280800-
NEBRASKA PANHANDLE

CITY           SKY/WX    TMP DP  RH WIND       PRES   REMARKS
SCOTTSBLUFF    CLOUDY    46  41  82 N3        30.36S
ALLIANCE       PTCLDY    39  38  96 NE6       30.34S WCI  35
CHADRON        CLOUDY    45  42  89 CALM      30.36S
KIMBALL        CLOUDY    44  42  93 N6        30.34S
SIDNEY         CLOUDY    45  41  86 N7        30.35R
$$

NEZ057>060-069>072-079>082-280800-
SOUTHWEST NEBRASKA

CITY           SKY/WX    TMP DP  RH WIND       PRES   REMARKS
NORTH PLATTE   PTCLDY    48  40  73 N15       30.29R
IMPERIAL       MOCLDY    49  39  68 NE14      30.29R
MCCOOK         PTCLDY    41  36  82 W5        30.25R
$$

NEZ005>010-023>029-035>040-094-280800-
NORTH CENTRAL NEBRASKA

CITY           SKY/WX    TMP DP  RH WIND       PRES   REMARKS
VALENTINE      PTCLDY    43  39  86 N6        30.33S
AINSWORTH      CLOUDY    46  42  84 N10       30.32S
BROKEN BOW     CLEAR     49  41  74 N16       30.27R
ORD            CLEAR     49  41  74 NW14      30.25R
$$

NEZ041-046>049-061>064-073>077-083>087-280800-
SOUTH CENTRAL NEBRASKA

CITY           SKY/WX    TMP DP  RH WIND       PRES   REMARKS
GRAND ISLAND   CLEAR     42  33  70 W5        30.22S
AURORA         CLEAR     41  34  76 N8        30.21S
HASTINGS       PTCLDY    44  35  70 CALM      30.21S
KEARNEY *      CLEAR     43  34  70 NW6       30.22S
$$

NEZ011>018-030>034-042>045-280800-
NORTHEAST NEBRASKA

CITY           SKY/WX    TMP DP  RH WIND       PRES   REMARKS
NORFOLK        CLEAR     41  30  65 CALM      30.21S
ALBION         CLEAR     44  32  62 NW8       30.24R
BLAIR          PTCLDY    53  30  40 N6        30.19R
COLUMBUS *     PTCLDY    41  30  65 CALM      30.23R
TEKAMAH        CLEAR     43  34  70 CALM      30.19S
$$

NEZ050>053-065>068-078-088>093-280800-
SOUTHEAST NEBRASKA

CITY           SKY/WX    TMP DP  RH WIND       PRES   REMARKS
LINCOLN        PTCLDY    41  36  82 N8        30.20S
OMAHA EPPLEY   MOCLDY    43  39  86 NW7       30.19R
BEATRICE       CLEAR     42  35  75 CALM      30.17S
FALLS CITY     PTCLDY    52  34  50 CALM      30.16R
NEBRASKA CITY  PTCLDY    51  28  40 N5        30.17F
PLATTSMOUTH    CLEAR     49  32  52 CALM      30.18S
$$

NEZ044-045-051>053-067-280800-
OMAHA AREA

CITY           SKY/WX    TMP DP  RH WIND       PRES   REMARKS
OMAHA EPPLEY   MOCLDY    43  39  86 NW7       30.19R
BLAIR          PTCLDY    53  30  40 N6        30.19R
OFFUTT AFB     PTCLDY    41  37  87 CALM      30.18R
PLATTSMOUTH    CLEAR     49  32  52 CALM      30.18S
WAHOO          FAIR      44  33  66 NW5       30.20R
$$


USA.gov is the U.S. government's official web portal to all federal, state and local government web resources and services.